Location: Newark
(40.9833°N, 0.0333°W)
Time: 09:27:38
(UTC+00:00)

Transit 4A - Pass Details

Date: 01 November 2020
Orbit: 862 x 982 km, 66.8° (Epoch: 26 November)

Event Time Altitude Azimuth Distance (km) Brightness Sun altitude
Rises 12:20:41 0° 154° (SSE) 3,572 11.6 33.7°
Reaches altitude 10° 12:24:33 10° 130° (SE) 2,661 10.7 33.5°
Maximum altitude 12:27:30 14° 101° (E) 2,410 10.2 33.4°
Drops below altitude 10° 12:30:31 10° 72° (ENE) 2,704 10.1 33.3°
Sets 12:34:28 0° 49° (NE) 3,674 10.6 33.1°
